| time (UTC) | temp F | wind direction | speed knots | gust knots | rain 1hr in | rain 24hr in | rain mn in | humidity % | barometer mb |
| 20260507094554 | 53 | 323 | 0.9 | 3.5 | 0.00 | 0.00 | 0.00 | 91 | 1019.9 |
| 20260507093054 | 53 | 0 | 1.7 | 4.3 | 0.00 | 0.00 | 0.00 | 91 | 1019.9 |
| 20260507091554 | 53 | 332 | 0.9 | 6.1 | 0.00 | 0.00 | 0.00 | 91 | 1020.1 |
| 20260507084556 | 54 | 314 | 0.9 | 4.3 | 0.00 | 0.00 | 0.00 | 91 | 1020.1 |
| 20260507083055 | 54 | 344 | 0.9 | 3.5 | 0.00 | 0.00 | 0.00 | 91 | 1020.3 |
| 20260507081557 | 54 | 333 | 0.0 | 3.5 | 0.00 | 0.00 | 0.00 | 91 | 1020.4 |
| 20260507080107 | 54 | 331 | 0.0 | 5.2 | 0.00 | 0.00 | 0.00 | 91 | 1020.5 |
| 20260507074559 | 54 | 336 | 0.9 | 3.5 | 0.00 | 0.00 | 0.00 | 90 | 1020.5 |
| 20260507073101 | 54 | 316 | 1.7 | 4.3 | 0.00 | 0.00 | 0.00 | 90 | 1020.4 |
| 20260507071553 | 54 | 350 | 0.0 | 4.3 | 0.00 | 0.00 | 0.00 | 90 | 1020.5 |
| 20260507070105 | 54 | 323 | 1.7 | 4.3 | 0.00 | 0.00 | 0.00 | 90 | 1020.5 |
| 20260507064634 | 54 | 336 | 1.7 | 4.3 | 0.00 | 0.00 | 0.00 | 90 | 1020.6 |
| 20260507063109 | 54 | 333 | 0.9 | 4.3 | 0.00 | 0.00 | 0.00 | 90 | 1020.4 |
| 20260507061554 | 54 | 0 | 0.0 | 5.2 | 0.00 | 0.00 | 0.00 | 90 | 1020.6 |
| 20260507060112 | 55 | 340 | 1.7 | 7.8 | 0.00 | 0.00 | 0.00 | 90 | 1020.5 |
| 20260507054605 | 55 | 328 | 1.7 | 3.5 | 0.00 | 0.00 | 0.00 | 90 | 1020.3 |
| 20260507053107 | 55 | 329 | 1.7 | 7.0 | 0.00 | 0.00 | 0.00 | 90 | 1020.4 |
| 20260507051606 | 55 | 302 | 1.7 | 7.0 | 0.00 | 0.00 | 0.00 | 90 | 1020.5 |
| 20260507050056 | 55 | 0 | 0.9 | 4.3 | 0.00 | 0.00 | 0.00 | 89 | 1020.7 |
| 20260507044600 | 55 | 300 | 0.9 | 7.0 | 0.00 | 0.00 | 0.00 | 89 | 1020.7 |
| 20260507043057 | 55 | 281 | 2.6 | 7.0 | 0.00 | 0.00 | 0.00 | 89 | 1020.6 |
| 20260507041555 | 55 | 297 | 2.6 | 6.1 | 0.00 | 0.00 | 0.00 | 89 | 1020.4 |
| 20260507040052 | 55 | 331 | 1.7 | 4.3 | 0.00 | 0.00 | 0.00 | 89 | 1020.4 |
| 20260507034555 | 55 | 331 | 1.7 | 4.3 | 0.00 | 0.00 | 0.00 | 88 | 1020.3 |
| 20260507033054 | 55 | 296 | 1.7 | 7.0 | 0.00 | 0.00 | 0.00 | 88 | 1020.2 |
| 20260507031553 | 56 | 287 | 3.5 | 8.7 | 0.00 | 0.00 | 0.00 | 88 | 1020.1 |
| 20260507030054 | 56 | 311 | 2.6 | 7.8 | 0.00 | 0.00 | 0.00 | 87 | 1019.9 |
| 20260507024554 | 56 | 326 | 1.7 | 8.7 | 0.00 | 0.00 | 0.00 | 87 | 1019.8 |
| 20260507023053 | 56 | 324 | 2.6 | 8.7 | 0.00 | 0.00 | 0.00 | 87 | 1019.7 |
| 20260507021555 | 56 | 301 | 2.6 | 8.7 | 0.00 | 0.00 | 0.00 | 86 | 1019.8 |
| 20260507020103 | 57 | 340 | 3.5 | 7.8 | 0.00 | 0.00 | 0.00 | 86 | 1019.8 |
| 20260507014558 | 57 | 324 | 4.3 | 11.3 | 0.00 | 0.00 | 0.00 | 86 | 1019.9 |
| 20260507013053 | 57 | 321 | 6.1 | 9.6 | 0.00 | 0.00 | 0.00 | 85 | 1020.0 |
| 20260507011553 | 58 | 305 | 3.5 | 11.3 | 0.00 | 0.00 | 0.00 | 85 | 1019.9 |
| 20260507010109 | 58 | 292 | 6.1 | 12.2 | 0.00 | 0.00 | 0.00 | 84 | 1019.9 |
| 20260507004556 | 59 | 282 | 6.1 | 11.3 | 0.00 | 0.00 | 0.00 | 84 | 1019.8 |
| 20260507003055 | 59 | 282 | 4.3 | 12.2 | 0.00 | 0.00 | 0.00 | 84 | 1019.6 |
| 20260507001608 | 59 | 307 | 5.2 | 13.0 | 0.00 | 0.00 | 0.00 | 83 | 1019.6 |
| 20260507000052 | 60 | 302 | 2.6 | 9.6 | 0.00 | 0.00 | 0.00 | 83 | 1019.6 |
| 20260506234603 | 60 | 300 | 3.5 | 10.4 | 0.00 | 0.00 | 0.00 | 83 | 1019.6 |
| 20260506233059 | 60 | 303 | 4.3 | 13.0 | 0.00 | 0.00 | 0.00 | 83 | 1019.6 |
| 20260506231609 | 60 | 308 | 4.3 | 12.2 | 0.00 | 0.00 | 0.00 | 82 | 1019.6 |
| 20260506230111 | 60 | 293 | 6.1 | 11.3 | 0.00 | 0.00 | 0.00 | 82 | 1019.8 |
| 20260506224603 | 60 | 319 | 5.2 | 12.2 | 0.00 | 0.00 | 0.00 | 82 | 1019.8 |
| 20260506223100 | 61 | 299 | 4.3 | 11.3 | 0.00 | 0.00 | 0.00 | 82 | 1019.8 |
| 20260506221613 | 61 | 320 | 4.3 | 11.3 | 0.00 | 0.00 | 0.00 | 81 | 1020.1 |
| 20260506220115 | 61 | 295 | 5.2 | 12.2 | 0.00 | 0.00 | 0.00 | 81 | 1020.2 |
| 20260506214558 | 61 | 306 | 2.6 | 10.4 | 0.00 | 0.00 | 0.00 | 81 | 1020.2 |
| 20260506213109 | 61 | 293 | 3.5 | 12.2 | 0.00 | 0.00 | 0.00 | 81 | 1020.2 |
| 20260506211558 | 61 | 288 | 5.2 | 13.0 | 0.00 | 0.00 | 0.00 | 80 | 1020.3 |
| 20260506210105 | 62 | 297 | 4.3 | 10.4 | 0.00 | 0.00 | 0.00 | 80 | 1020.3 |
| 20260506204606 | 62 | 287 | 3.5 | 10.4 | 0.00 | 0.00 | 0.00 | 81 | 1020.4 |
| 20260506203056 | 62 | 287 | 4.3 | 11.3 | 0.00 | 0.00 | 0.00 | 80 | 1020.5 |
| 20260506201558 | 62 | 288 | 4.3 | 11.3 | 0.00 | 0.00 | 0.00 | 79 | 1020.6 |
| 20260506200055 | 62 | 296 | 3.5 | 12.2 | 0.00 | 0.00 | 0.00 | 79 | 1020.7 |
| 20260506194553 | 63 | 284 | 5.2 | 10.4 | 0.00 | 0.00 | 0.00 | 78 | 1020.7 |
| 20260506193055 | 63 | 309 | 4.3 | 11.3 | 0.00 | 0.00 | 0.00 | 77 | 1020.7 |
| 20260506191556 | 63 | 288 | 5.2 | 12.2 | 0.00 | 0.00 | 0.00 | 78 | 1020.7 |
| 20260506190052 | 62 | 302 | 6.1 | 13.0 | 0.00 | 0.00 | 0.00 | 77 | 1020.8 |
| 20260506184620 | 64 | 309 | 2.6 | 10.4 | 0.00 | 0.00 | 0.00 | 77 | 1020.8 |
| 20260506183057 | 63 | 282 | 4.3 | 10.4 | 0.00 | 0.00 | 0.00 | 76 | 1020.8 |
| 20260506181559 | 64 | 306 | 2.6 | 9.6 | 0.00 | 0.00 | 0.00 | 76 | 1021.0 |
| 20260506174554 | 63 | 292 | 3.5 | 9.6 | 0.00 | 0.00 | 0.00 | 80 | 1021.1 |
| 20260506173053 | 61 | 315 | 5.2 | 8.7 | 0.00 | 0.00 | 0.00 | 79 | 1021.1 |
| 20260506171601 | 62 | 281 | 1.7 | 8.7 | 0.00 | 0.00 | 0.00 | 79 | 1021.1 |
| 20260506170057 | 61 | 309 | 4.3 | 7.8 | 0.00 | 0.00 | 0.00 | 81 | 1021.3 |
| 20260506164553 | 61 | 313 | 0.9 | 4.3 | 0.00 | 0.00 | 0.00 | 80 | 1021.2 |
| 20260506163101 | 60 | 350 | 0.9 | 4.3 | 0.00 | 0.00 | 0.00 | 84 | 1021.2 |
| 20260506161553 | 58 | 322 | 0.9 | 2.6 | 0.00 | 0.00 | 0.00 | 86 | 1021.3 |
| 20260506160108 | 57 | 0 | 0.9 | 3.5 | 0.00 | 0.00 | 0.00 | 88 | 1021.2 |
| 20260506154553 | 56 | 0 | 0.0 | 2.6 | 0.00 | 0.01 | 0.00 | 89 | 1021.2 |
| 20260506153053 | 55 | 0 | 0.0 | 1.7 | 0.00 | 0.01 | 0.00 | 90 | 1021.2 |
| 20260506151557 | 55 | 0 | 0.0 | 0.0 | 0.00 | 0.01 | 0.00 | 91 | 1021.1 |
| 20260506150055 | 55 | 0 | 0.0 | 0.0 | 0.00 | 0.01 | 0.00 | 91 | 1021.2 |
| 20260506144603 | 54 | 0 | 0.0 | 0.0 | 0.00 | 0.01 | 0.00 | 90 | 1021.1 |
| 20260506143054 | 53 | 0 | 0.0 | 0.0 | 0.00 | 0.01 | 0.00 | 90 | 1021.1 |
| 20260506141557 | 53 | 0 | 0.0 | 0.0 | 0.00 | 0.01 | 0.00 | 90 | 1020.9 |
| 20260506140056 | 53 | 0 | 0.0 | 0.0 | 0.00 | 0.01 | 0.00 | 90 | 1020.8 |
| 20260506134553 | 53 | 0 | 0.0 | 0.0 | 0.00 | 0.01 | 0.00 | 90 | 1020.6 |
| 20260506133057 | 53 | 0 | 0.0 | 0.0 | 0.00 | 0.01 | 0.00 | 90 | 1020.6 |
| 20260506131612 | 52 | 0 | 0.0 | 0.0 | 0.00 | 0.01 | 0.00 | 90 | 1020.4 |
| 20260506130056 | 53 | 0 | 0.0 | 0.0 | 0.00 | 0.01 | 0.00 | 89 | 1020.2 |
| 20260506124553 | 53 | 0 | 0.0 | 0.0 | 0.00 | 0.01 | 0.00 | 89 | 1020.2 |
| 20260506123055 | 53 | 0 | 0.0 | 0.0 | 0.00 | 0.01 | 0.00 | 89 | 1020.2 |
| 20260506121557 | 53 | 0 | 0.0 | 0.0 | 0.00 | 0.01 | 0.00 | 89 | 1020.1 |
| 20260506120104 | 53 | 0 | 0.0 | 0.0 | 0.00 | 0.01 | 0.00 | 88 | 1020.0 |
| 20260506114555 | 54 | 0 | 0.0 | 0.0 | 0.00 | 0.01 | 0.00 | 88 | 1019.8 |
| 20260506113055 | 54 | 0 | 0.0 | 0.0 | 0.00 | 0.01 | 0.00 | 89 | 1019.7 |
| 20260506111556 | 55 | 0 | 0.0 | 0.0 | 0.00 | 0.01 | 0.00 | 88 | 1019.8 |
| 20260506110058 | 55 | 0 | 0.0 | 0.9 | 0.00 | 0.01 | 0.00 | 88 | 1019.6 |
| 20260506104605 | 55 | 0 | 0.0 | 0.9 | 0.00 | 0.01 | 0.00 | 88 | 1019.5 |
| 20260506103059 | 55 | 0 | 0.0 | 2.6 | 0.00 | 0.01 | 0.00 | 88 | 1019.5 |
| 20260506101600 | 55 | 0 | 0.0 | 0.9 | 0.00 | 0.01 | 0.00 | 89 | 1019.5 |
| 20260506100114 | 55 | 0 | 0.0 | 0.9 | 0.00 | 0.01 | 0.00 | 89 | 1019.5 |